カタログに戻る

STARLINK-3859

運用中通信VLEO
NORAD 52470·PAYLOAD·🇺🇸 United States

打ち上げ May 6, 2022 から Cape Canaveral Space Force Station

Loading…

次のパス (今後24時間)

TLE

最新Source: CelesTrak SupGP

元期: Sep 15, 2026, 01:55 UTC

1 52470C 22049V   26258.08034722  .00007944  00000+0  23469-3 0  2582
2 52470  53.1586 278.7060 0001357  92.4214  94.6335 15.34387373    11

AllMySatでSTARLINK-3859をリアルタイム追跡

Download on the App Store